RH
23 20 21 19 19 25 30 35 28 17 27 45 51 64 68 68 68 68 62 52 43 40 38 36 32 30 38 42 57 89 80 63 55 72 63 74 59 38 62 95 100 78 80 72 57 56 58
23 20 21 19 20 20 31 32 39 18 23 38 44 55 67 75 75 77 72 61 50 45 44 36 35 48 43 53 36 52 68 68 64 54 59 67 70 71 91 96 99 89 82 76 65 60 64
25 21 20 22 20 19 25 36 39 24 20 28 36 52 66 79 78 91 90 73 60 51 50 40 49 62 64 52 60 56 53 56 57 59 53 58 68 90 72 94 99 99 98 91 67 62 68
24 22 19 24 20 21 21 35 39 35 18 23 25 45 74 88 90 98 99 89 75 64 55 60 71 66 71 51 61 57 68 61 60 54 53 67 68 98 97 97 97 100 100 86 74 84 68
22 20 18 22 23 22 20 26 42 44 23 20 20 45 79 85 90 99 99 97 93 88 82 69 71 70 68 46 44 54 66 62 64 68 64 78 67 99 100 99 94 99 86 86 74 83 75
19 20 18 20 24 22 23 22 42 45 36 19 20 41 80 93 83 100 99 97 98 93 100 90 92 86 60 47 49 55 71 64 69 78 99 87 91 100 96 93 94 84 83 72 76 71 61
13 15 18 20 25 23 26 23 36 49 48 23 19 34 86 93 100 96 97 98 99 100 99 79 80 74 68 56 62 60 68 72 76 78 98 92 99 99 95 100 84 66 68 73 70 69 72
16 14 15 19 25 24 26 25 32 53 50 36 23 20 84 96 93 100 98 97 96 99 99 98 96 93 93 76 65 76 73 71 70 75 98 99 98 94 100 99 87 81 78 75 65 70 76
16 16 15 18 26 26 26 27 27 54 54 55 28 19 55 94 93 92 99 98 98 98 98 97 97 97 96 82 62 80 77 67 59 60 96 91 86 98 100 99 94 85 79 66 66 80 83
13 20 15 16 26 26 27 31 27 58 60 64 58 29 20 70 64 90 99 98 98 98 98 95 96 92 94 96 71 63 83 73 80 85 94 98 98 89 99 98 94 95 86 83 83 90 70
12 18 20 15 22 26 30 34 28 64 64 61 78 55 33 19 22 67 95 98 98 98 95 86 90 95 86 79 86 64 73 80 77 94 96 93 97 100 100 96 92 82 83 87 93 94 84
38 13 24 17 19 26 34 38 34 70 67 65 79 61 34 32 33 58 93 98 98 98 90 92 96 95 95 83 75 90 92 82 84 99 98 83 99 100 100 94 99 96 92 92 91 89 68
97 23 22 25 17 24 37 39 41 71 70 70 81 60 28 34 50 83 98 98 98 97 93 98 97 97 97 90 91 91 87 76 97 98 98 94 99 93 100 99 100 98 98 99 95 93 60
90 95 16 29 20 23 40 40 45 76 76 74 85 61 28 43 72 88 98 98 98 96 95 96 96 98 98 90 92 96 100 100 93 100 94 98 100 100 98 98 96 98 83 60 62 58 48
100 95 79 32 29 24 45 44 48 80 80 78 91 61 33 73 83 98 98 98 94 96 96 96 98 96 100 98 78 99 98 92 98 99 86 97 100 100 99 100 94 100 98 74 58 59 49
99 93 87 76 72 30 49 46 58 83 86 79 96 44 56 94 99 98 98 98 97 97 97 98 93 95 95 100 94 100 88 86 85 96 97 93 99 100 100 98 99 98 92 88 71 59 54
99 98 88 98 94 72 50 50 69 86 88 84 98 40 72 96 100 98 98 96 98 98 98 99 85 93 83 94 88 93 89 84 65 86 97 98 90 98 98 98 95 100 99 95 71 60 43
98 98 94 99 100 90 53 53 76 85 93 86 77 67 91 100 99 98 98 96 96 99 99 79 89 82 80 93 83 98 89 93 74 79 92 74 67 96 94 92 94 85 88 89 73 62 56
97 99 98 88 100 93 57 59 83 84 97 90 53 88 99 100 100 99 98 98 99 99 92 98 80 88 73 65 90 97 79 90 63 78 71 74 67 73 99 89 84 97 93 88 68 58 53
93 99 100 98 100 91 62 64 86 86 99 93 59 98 100 100 100 99 99 99 99 94 92 99 85 81 58 57 85 73 96 70 79 83 75 73 68 55 56 59 69 78 82 82 79 69 55
76 98 99 100 100 94 65 65 88 86 100 97 51 87 97 99 97 99 99 99 100 97 98 100 92 85 78 78 96 91 91 90 86 81 77 82 68 68 64 60 60 59 61 61 73 70 60
80 97 100 100 99 97 76 63 91 83 99 97 58 70 96 91 91 100 99 98 99 97 98 97 96 94 89 67 78 90 95 93 89 87 79 86 77 65 61 62 64 62 58 57 58 68 63
40 96 99 100 100 99 74 70 90 84 90 96 84 43 81 76 83 100 99 99 99 100 99 96 96 96 100 89 76 70 88 93 76 71 90 90 82 71 59 61 66 67 65 59 53 54 54
37 96 99 99 100 97 78 76 88 80 82 97 94 43 40 51 81 100 100 100 100 99 100 100 95 87 79 98 84 85 99 100 100 95 92 86 90 70 63 82 67 52 48 48 51 49 51
52 96 99 100 100 99 75 73 88 75 78 99 93 57 43 59 80 99 99 99 100 100 100 99 90 90 83 100 98 100 100 100 100 100 99 90 96 84 71 60 51 44 47 46 47 41 37
26 94 98 99 98 100 74 76 84 74 75 99 89 69 32 53 74 71 88 97 100 100 100 100 100 93 95 99 95 92 99 99 99 100 100 98 100 99 84 58 53 42 42 38 41 42 36
16 78 98 98 99 100 86 74 83 76 73 99 92 79 28 49 76 51 69 88 100 100 99 100 99 100 99 100 98 94 98 86 90 98 99 100 99 92 83 95 46 43 37 36 44 39 33
14 77 97 99 99 96 71 73 83 77 72 94 99 84 29 48 66 59 54 87 98 99 99 99 100 99 100 100 98 98 99 90 81 78 79 83 71 68 80 95 65 46 44 43 38 36 40
16 65 97 99 93 100 69 71 83 76 71 80 100 83 39 58 65 50 49 70 94 93 99 99 98 98 97 98 94 97 85 95 92 82 78 72 72 73 63 61 51 50 50 50 44 44 49
Wind_Speed
24 24 23 21 18 19 18 16 17 16 16 16 17 17 22 24 22 21 19 17 17 17 18 19 21 27 30 35 41 32 21 15 22 32 32 33 34 37 41 36 28 38 28 29 29 25 25
27 24 24 23 20 18 19 17 17 17 16 17 16 19 23 23 24 20 17 15 15 17 16 17 21 24 28 34 33 35 39 36 26 18 33 35 35 31 27 33 35 25 35 31 27 26 24
28 26 24 23 22 20 19 19 17 18 16 18 16 19 25 23 23 21 17 16 17 17 16 18 20 22 29 27 24 23 26 29 30 30 27 36 32 29 31 31 30 32 23 21 27 27 26
27 27 26 24 24 22 20 19 18 18 17 18 17 16 18 21 25 22 22 15 16 15 18 19 21 24 31 24 25 28 27 24 25 31 32 35 36 30 33 28 21 31 26 28 24 22 25
28 26 25 24 24 23 22 22 19 19 18 19 16 16 17 18 23 21 18 15 14 15 17 20 24 27 31 27 26 24 27 26 24 31 31 34 43 37 34 31 27 26 27 30 23 18 20
31 28 24 24 24 23 23 23 21 20 18 19 16 16 15 18 23 22 16 16 16 20 22 24 25 22 28 19 14 21 25 27 25 29 28 36 47 42 41 38 38 27 25 18 23 17 20
31 32 26 23 23 23 23 23 22 22 19 19 16 16 17 21 26 27 19 21 23 29 32 30 19 30 23 13 9 18 27 29 28 33 33 39 49 54 48 36 25 29 24 21 16 18 15
31 31 34 24 22 23 22 23 23 22 20 19 17 17 20 20 20 26 21 29 30 30 33 29 34 32 26 26 14 16 23 31 30 38 33 36 51 51 26 41 28 24 22 21 16 19 18
33 30 33 27 24 22 22 23 23 23 19 19 16 18 22 20 21 23 24 25 26 28 32 35 31 32 28 26 25 16 18 27 29 35 35 47 54 43 30 36 34 23 21 18 14 10 13
33 31 30 31 25 23 22 22 23 21 20 20 17 18 22 24 24 21 21 22 26 28 20 20 26 28 27 28 29 26 16 26 28 32 38 31 32 45 34 39 32 26 19 15 13 8 8
33 30 28 30 28 24 22 22 23 20 20 20 18 20 20 22 24 21 20 22 19 19 5 5 18 15 23 32 14 21 21 29 29 22 26 24 46 38 35 36 34 24 21 18 11 10 11
30 29 29 28 29 25 23 22 22 20 19 19 18 21 21 19 20 17 12 11 11 11 7 9 11 22 17 27 29 12 25 31 26 19 25 23 29 33 33 34 33 17 19 13 9 5 9
28 28 27 27 28 26 24 23 21 19 18 19 17 21 21 18 16 14 15 18 12 8 5 8 13 19 19 24 25 26 32 38 30 15 22 33 21 32 27 35 32 25 22 5 6 5 6
28 25 27 27 28 26 24 23 21 19 18 17 17 21 20 16 17 17 20 21 12 9 15 7 11 15 20 20 23 23 25 30 40 13 21 27 11 34 39 35 27 32 24 6 5 6 5
27 26 25 27 28 25 25 22 20 18 17 16 16 21 19 15 19 21 23 26 12 13 9 21 16 19 15 19 15 22 26 33 36 20 14 21 6 24 34 32 29 24 25 9 3 2 3
26 28 25 23 24 24 25 22 19 16 17 16 16 18 16 14 15 19 29 28 25 18 10 16 13 18 20 20 15 19 24 25 36 22 17 25 8 22 28 27 28 25 27 11 6 5 5
28 27 26 22 22 23 25 22 19 15 16 14 17 16 14 10 17 28 36 32 27 28 22 21 13 17 17 22 16 21 22 12 40 26 23 12 4 16 22 20 27 21 25 13 11 4 3
11 26 25 23 22 24 25 21 19 14 16 14 14 13 12 13 16 32 37 31 27 16 11 21 12 12 18 20 25 17 19 10 28 32 24 19 10 14 21 12 21 21 16 19 12 6 4
14 29 26 24 24 24 25 22 19 14 16 13 11 10 12 11 17 27 24 27 23 18 18 16 17 14 20 21 17 18 21 19 30 31 27 20 9 14 8 10 19 25 23 23 18 16 17
33 28 27 23 23 25 25 22 19 15 16 14 13 8 12 17 19 15 13 11 11 20 19 12 11 16 19 23 12 24 17 29 20 31 23 20 10 19 18 12 19 25 29 28 27 23 16
38 16 31 27 23 26 25 22 20 16 17 17 17 15 15 14 17 15 16 14 20 23 23 17 19 19 22 20 21 19 22 24 26 32 28 16 6 17 15 17 18 25 32 34 33 32 22
35 13 31 27 24 27 26 23 20 18 18 20 18 20 14 16 15 18 11 20 26 29 27 25 23 22 20 25 24 25 25 24 33 38 41 17 9 10 14 16 18 22 26 31 36 32 34
30 19 32 28 23 27 27 22 20 19 20 21 17 19 18 16 13 15 12 14 18 25 24 21 16 22 25 20 17 12 15 18 24 43 37 22 10 10 5 7 14 14 28 29 30 32 35
24 20 33 31 24 26 27 23 22 20 19 19 16 15 18 17 14 11 6 5 5 20 13 19 17 22 24 17 15 17 22 16 13 37 30 30 17 12 2 5 5 9 15 24 29 30 35
16 18 34 31 24 22 27 23 22 20 18 19 17 16 16 15 11 7 7 6 6 15 17 21 22 24 22 13 20 20 16 18 23 28 28 28 24 12 5 13 9 10 16 19 26 29 29
18 31 30 33 27 22 28 23 23 20 18 19 19 17 16 14 7 7 9 5 7 16 25 25 22 27 24 25 22 12 8 12 13 19 26 20 19 14 11 4 5 6 12 10 14 19 17
18 27 23 36 27 27 29 25 24 21 19 19 20 16 16 16 10 6 8 9 9 19 27 26 23 30 31 15 20 16 7 16 14 17 31 25 19 20 16 8 9 15 8 7 9 7 9
19 28 24 39 31 22 30 26 25 21 20 19 20 18 17 17 8 10 8 8 8 10 25 29 26 22 25 18 14 10 9 13 11 16 25 25 17 16 18 10 13 15 13 12 11 10 8
19 31 25 39 34 29 30 26 25 22 21 20 21 19 18 18 12 9 8 9 11 12 13 23 21 19 20 18 15 8 9 16 14 13 18 21 23 18 17 13 15 11 15 17 18 14 8
Wind_Direction
285 291 295 299 304 310 316 321 317 311 301 300 321 319 312 300 295 286 270 254 243 239 239 240 242 243 243 242 236 244 253 259 244 235 240 233 220 214 217 222 222 230 231 240 242 247 255
282 284 289 294 298 304 310 315 315 306 299 295 311 317 320 309 300 284 271 262 250 241 235 236 239 242 242 244 249 244 253 255 245 240 234 232 224 216 219 220 223 234 234 243 245 246 253
278 280 283 288 292 297 304 308 311 303 296 290 301 316 322 318 308 301 290 265 250 240 235 236 238 240 241 242 246 250 252 256 246 233 241 227 213 209 214 220 223 225 237 243 242 247 254
272 275 280 282 287 292 298 301 305 301 293 284 291 310 318 321 310 298 293 273 252 245 240 238 239 242 249 247 247 247 247 249 242 228 226 224 205 201 208 212 224 224 231 236 239 244 244
268 268 274 278 283 287 294 298 299 297 293 281 286 302 315 325 330 315 274 265 265 246 247 243 241 246 257 257 253 250 241 235 232 223 224 212 202 202 199 196 209 210 221 227 229 243 232
271 264 263 270 275 282 288 294 296 295 296 283 283 293 305 307 325 312 273 255 253 256 245 243 241 246 252 262 263 236 228 227 225 214 223 203 201 204 201 201 198 199 208 222 224 236 237
270 269 260 261 269 275 281 289 292 291 296 289 283 281 291 301 286 309 281 239 241 241 246 251 251 242 249 240 267 231 213 216 213 216 217 204 202 213 203 195 198 206 210 215 224 228 237
268 268 266 257 260 269 276 284 288 288 293 292 285 277 283 292 296 295 279 244 232 252 254 260 249 238 240 243 244 200 206 209 209 223 206 194 206 200 210 197 193 200 202 208 222 232 248
267 264 267 259 257 262 269 278 285 286 289 292 290 284 277 287 288 304 289 245 244 257 261 268 257 246 239 238 231 222 222 211 212 220 223 197 202 195 197 196 191 199 197 196 206 228 251
259 262 261 263 256 257 262 272 279 283 285 289 293 289 281 280 291 303 284 247 253 253 251 262 242 241 219 223 238 231 219 214 213 221 222 205 197 194 208 190 189 195 187 195 210 234 238
258 258 255 260 256 256 259 268 277 281 281 284 291 294 286 282 285 289 295 257 249 246 262 232 219 222 218 213 224 216 212 210 212 216 206 188 197 195 205 195 190 205 209 215 230 260 272
256 254 254 253 255 255 256 265 274 278 277 281 290 295 287 285 287 294 289 242 257 212 243 212 208 201 193 203 208 205 208 203 206 215 218 189 195 191 196 195 191 198 194 199 219 243 251
250 253 249 249 251 250 252 261 268 275 273 276 287 294 288 283 291 280 277 249 203 221 214 208 197 190 195 195 200 221 196 196 204 169 201 188 212 198 181 197 190 179 169 146 194 207 238
241 248 246 243 245 243 247 256 264 271 270 273 284 290 287 290 281 271 249 227 220 239 207 201 184 180 191 199 210 209 199 199 211 185 188 195 172 184 186 194 187 176 184 184 180 193 179
234 245 243 239 242 238 243 251 261 268 266 267 279 289 286 289 282 266 219 205 224 235 235 219 171 181 193 196 213 191 202 198 204 161 176 191 149 155 186 178 187 182 190 190 127 106 229
215 234 240 235 240 235 241 248 257 265 261 261 276 284 286 280 282 214 210 215 229 234 254 191 178 188 195 186 201 183 189 208 212 178 185 198 134 168 168 187 188 213 191 190 193 204 224
200 225 237 225 231 233 237 245 251 256 253 255 272 280 284 293 261 205 217 227 238 254 256 179 199 185 190 186 190 184 192 215 211 178 177 181 180 150 171 193 187 166 190 188 198 224 241
172 212 229 227 221 233 233 240 246 248 245 247 267 277 285 293 215 219 226 240 253 278 183 173 203 197 185 182 200 185 200 198 191 177 184 171 195 160 173 192 207 199 195 193 196 203 228
279 204 220 223 223 229 230 237 240 242 237 240 246 258 271 271 235 232 243 250 263 237 178 167 197 193 185 192 192 190 197 194 189 191 183 170 182 146 175 202 196 207 201 206 214 217 213
265 196 209 213 220 228 227 233 236 234 229 232 220 228 237 247 259 243 257 252 192 182 174 172 188 186 195 197 203 190 195 206 187 190 170 185 198 207 203 214 199 203 210 215 212 222 218
253 214 200 215 214 228 225 230 234 230 222 224 221 225 249 244 282 283 259 268 184 192 192 192 199 199 185 186 199 195 205 197 194 185 178 194 223 207 210 216 212 224 222 222 216 219 226
236 223 195 210 210 227 219 221 232 230 221 222 227 224 242 266 288 287 263 230 193 202 193 207 200 202 200 202 192 192 188 199 190 185 198 183 214 216 230 228 227 224 233 233 229 225 235
253 248 191 207 202 222 218 220 228 226 228 222 228 226 238 253 273 291 266 223 208 201 209 202 198 199 196 198 215 213 203 196 203 189 192 201 209 221 219 221 222 236 226 231 233 231 236
249 243 187 207 195 222 217 217 225 225 228 223 225 229 235 251 268 289 229 270 234 201 200 193 181 189 178 181 172 206 195 203 215 192 199 198 209 213 146 173 220 238 240 232 239 244 243
263 232 188 205 201 225 218 216 223 224 222 218 217 227 227 243 262 286 295 267 195 174 197 172 178 183 182 175 149 149 166 168 173 186 188 209 206 200 176 215 281 264 239 228 225 240 238
270 227 188 201 198 209 220 217 219 221 218 213 213 223 220 231 249 264 265 271 212 173 172 171 182 181 179 162 162 170 165 175 180 183 190 198 212 190 196 235 236 255 243 237 231 249 244
273 240 198 192 203 209 221 215 217 218 215 209 211 214 215 220 215 248 221 240 213 181 176 178 178 164 178 154 168 168 160 174 168 183 195 201 213 224 227 232 276 252 246 195 188 254 243
267 231 211 185 197 218 212 212 215 214 213 207 210 209 210 214 209 234 222 227 219 201 190 179 176 192 188 179 178 157 167 178 172 185 193 197 189 206 216 221 249 241 224 206 232 254 264
264 241 218 183 192 212 212 209 213 210 209 208 206 206 204 205 209 217 206 196 207 226 200 195 195 207 216 201 201 194 171 183 182 185 192 198 207 207 214 222 239 254 239 236 246 260 257